Location: Unspecified
(44.4377°N, 88.0525°W)
Time: 10:44:34
(UTC-06:00)

ISS - Visible Passes

Search period start: 18 January 2021 00:00
Search period end: 28 January 2021 00:00
Orbit: 418 x 419 km, 51.6° (Epoch: 18 January)

Date Brightness Start Highest point End Pass type
(mag) Time Alt. Az. Time Alt. Az. Time Alt. Az.
18 Jan -1.8 17:51:53 10° S 17:54:03 16° SE 17:54:54 15° ESE visible
18 Jan -0.8 19:27:07 10° WSW 19:27:52 16° WSW 19:27:52 16° WSW visible
19 Jan -3.5 18:39:24 10° SW 18:42:22 61° S 18:42:22 61° S visible
20 Jan -3.1 17:51:51 10° SSW 17:55:02 41° SE 17:56:47 22° E visible
20 Jan -0.9 19:28:41 10° W 19:29:44 18° W 19:29:44 18° W visible
21 Jan -3.3 18:40:43 10° WSW 18:44:01 52° NNW 18:44:04 52° NNW visible
22 Jan -3.7 17:52:50 10° WSW 17:56:12 78° NNW 17:58:21 20° NE visible
22 Jan -0.8 19:30:27 10° WNW 19:31:18 15° WNW 19:31:18 15° WNW visible
23 Jan -2.4 18:42:22 10° W 18:45:24 30° NNW 18:45:31 30° N visible
24 Jan -2.8 17:54:18 10° W 17:57:29 38° NNW 17:59:43 17° NE visible
24 Jan -0.7 19:32:07 10° NW 19:32:39 13° NW 19:32:39 13° NW visible
25 Jan -2.1 18:44:05 10° WNW 18:46:49 24° N 18:46:49 24° N visible
26 Jan -2.2 17:55:59 10° WNW 17:58:53 26° N 18:00:57 15° NE visible
26 Jan -0.7 19:33:29 10° NW 19:33:53 12° NW 19:33:53 12° NW visible
27 Jan -2.0 18:45:34 10° NW 18:48:01 23° N 18:48:01 23° N visible
